www.pogodaiklimat.ru

Погода и климат >> Архив погоды >> Антарктида >> Мак-Мердо


АРХИВ ПОГОДЫ на Мак-Мердо

Время (UTC), дата Ветер
(напр.,м/с)
 
Видим.   Явления Облачность Т
(С)
Тd
(С)
f
(%)
Тe
(С)
Тes
(С)
Комфортность P
(гПа)
Po
(гПа)
Тmin
(С)
Tmax
(С)
R
(мм)
R24
(мм)
S
(см)
12 12.01 ЮВ 7 11 км 9/1 60 м
[Sc Cs]
-1.9 -7.2 67 -9 -9 по сезону 999.3 995.1 -2.8 +0.8
15 12.01 ЮВ 3 12 км 8/0
[]
-0.9 -7.6 60 998.7
18 12.01 2 12 км 9/0
[]
-2.0 -6.9 69 998.0
21 12.01 ЮВ 7 6000 м дымка {туман} туман 1/1 50 м
[]
-5.6 -7.5 86 -14 -13 холодно 997.2 993.1
00 13.01 ЮВ 7 12 км дымка {туман} 10/10 200 м
[]
-4.2 -5.4 91 -12 -12 холодно 997.0 992.9 -6.0 -0.8
03 13.01 ЮВ 4 16 км 10/10 1000 м
[]
-2.9 -5.9 80 996.5
06 13.01 Ю 4 3600 м слаб. снег туман 10/10 100 м
[]
-3.7 -4.8 92 -10 -10 прохладно 996.2 992.1
09 13.01 Ю 3 9000 м слаб. снег туман 9/9 100 м
[]
-4.0 -5.4 90 -9 -9 по сезону 996.0 991.9
12 13.01 В 4 4800 м слаб. снег 10/10 210 м
[Sc]
-5.2 -6.6 90 -12 -12 прохладно 996.1 991.9 -5.2 -2.4 2
15 13.01 3 8000 м в посл. час снег туман 10/10 1000 м
[]
-4.6 -6.6 86 -10 -10 по сезону 995.9 991.7
18 13.01 3 12 км дождь {снег} туман 10/10 1000 м
[]
-3.8 -7.3 77 -9 -9 по сезону 996.2 992.1
21 13.01 Ю 3 16 км в посл. час снег 9/9 1000 м
[]
-3.4 -6.9 77 -9 -8 по сезону 997.2 993.0
00 14.01 Ю 6 14 км {снег} 10/10 1000 м
[]
-2.8 -5.6 81 -10 -10 прохладно 997.8 993.7 -5.3 -2.5
03 14.01 6 11 км 10/10 1000 м
[]
-2.0 -6.5 71 998.5
06 14.01 Ю 5 11 км дождь туман 10/10 1000 м
[]
-3.2 -6.3 79 -10 -10 прохладно 999.6 995.4
09 14.01 5 14 км {снег} 10/10 1500 м
[]
-3.7 -5.7 86 -11 -11 прохладно 1000.1 996.0
12 14.01 ЮВ 4 11 км слаб. снег 10/10 1500 м
[Sc]
-3.9 -6.3 83 -10 -10 по сезону 1001.2 997.1 -4.1 -1.3 0.0
15 14.01 В 6 16 км 10/0 2000 м
[]
-3.9 -7.3 77 1001.4
18 14.01 ЮВ 4 16 км 10/0 2000 м
[]
-3.3 -7.4 73 1002.1
21 14.01 В 5 14 км ясно -2.9 -7.2 72 1002.4
00 15.01 В 5 11 км ясно -1.7 -7.0 67 -8 -4 по сезону 1002.5 998.3 -4.3 -1.6
03 15.01 2 8000 м ясно +0.6 -5.1 66 -2 +4 по сезону 1002.2 998.0
06 15.01 СЗ 4 8000 м ясно -0.8 -4.5 76 1001.5
09 15.01 С 5 14 км ясно -0.5 -4.5 74 1000.2
12 15.01 штиль 0 11 км 5/1 600 м
[Sc Cs]
-0.4 -6.5 63 -1 -1 тепло 998.9 994.7 -1.8 +1.2 0.0
15 15.01 3 16 км ясно -1.0 -6.6 66 996.8
18 15.01 4 16 км 9/0
[]
-1.3 -6.2 69 995.1
21 15.01 2 14 км ясно -0.0 -6.8 60 994.0
00 16.01 2 9000 м ясно +0.5 -4.6 69 -2 +5 по сезону 992.6 988.5 -1.5 +1.6
03 16.01 2 8000 м ясно +1.3 -3.3 71 991.0
06 16.01 2 11 км 6/6 600 м
[]
+0.3 -4.3 71 990.2
09 16.01 2 11 км ясно -0.6 -5.4 70 -3 -2 по сезону 989.6 985.5
12 16.01 штиль 0 11 км 6/1 600 м
[Sc Ci fib]
-0.9 -5.8 69 -2 -1 тепло 989.5 985.4 -1.8 +1.9
15 16.01 штиль 0 12 км 6/0
[]
-1.4 -6.0 71 -2 -2 тепло 989.2 985.1
18 16.01 штиль 0 12 км ясно -0.7 -5.2 72 -2 +1 тепло 989.1 985.0
21 16.01 штиль 0 9000 м ясно +0.2 -4.7 70 989.1
00 17.01 ЮВ 3 16 км ясно -0.7 -6.2 66 -5 +1 по сезону 989.1 985.0 -2.4 +1.8
03 17.01 ЮВ 9 16 км 8/0
[]
-7.8 -11.5 75 989.5
06 17.01 ЮВ 10 16 км 9/0
[]
-8.2 -11.7 76 990.0
09 17.01 ЮВ 11 11 км в посл. час снег 8/8 200 м
[]
-8.8 -11.6 80 990.4
12 17.01 ЮВ 8 11 км позёмок 8/1 210 м
[Sc Cc]
-8.1 -11.1 79 -17 -17 очень
холодно
990.9 986.8 -8.9 +0.2
15 17.01 ЮВ 6 16 км {снег} 9/9 300 м
[]
-7.8 -11.1 77 991.4
18 17.01 ЮВ 4 16 км {снег} 5/5 600 м
[]
-7.3 -11.5 72 991.8
21 17.01 4 16 км 10/0
[]
-5.0 -11.9 58 991.9
00 18.01 3 16 км 10/0
[]
-4.6 -11.6 58 -10 -7 прохладно 992.1 987.8 -8.4 -4.3
03 18.01 Ю 4 16 км 10/10 600 м
[]
-4.2 -9.6 66 992.0
06 18.01 ЮЗ 6 16 км 10/0
[]
-4.8 -9.1 72 991.9
09 18.01 ЮВ 5 16 км 10/0
[]
-5.5 -9.5 73 -13 -12 холодно 991.8 987.7
12 18.01 ЮВ 6 11 км 10/5 900 м
[Sc Ac und]
-6.3 -10.1 74 -14 -14 холодно 991.6 987.4 -6.3 -4.1 0.0
15 18.01 В 7 16 км 10/0
[]
-5.8 -12.8 58 991.0
18 18.01 В 5 16 км 10/10 1500 м
[]
-6.0 -11.7 64 990.5
21 18.01 2 11 км 10/0
[]
-4.1 -13.5 48 990.2
00 19.01 Ю 3 14 км ясно -3.4 -13.6 45 -7 -2 по сезону 989.9 985.7 -6.4 -3.2
03 19.01 ЮВ 3 11 км 10/10 1000 м
[]
-3.1 -12.3 49 989.1
06 19.01 В 5 16 км {туман} 6/6 600 м
[]
-4.0 -9.7 64 988.6
09 19.01 ЮВ 5 16 км 9/0
[]
-5.4 -9.2 75 988.8

 

Местоположение метеостанции Мак-Мердо (Антарктида): широта -77.85 долгота 166.66 высота над уровнем моря 24 м.

В архиве по умолчанию представлена погода на Мак-Мердо за последнюю неделю. Архивные данные за месяц целиком и за предыдущие месяцы, начиная с января 2011 года, Вы можете получить, выбрав интересующий диапазон дат из раскрывающегося списка и нажав кнопку "Ввод!".


*Определитесь, кто Вы:
робот инопланетянин человек

Внимание! Время в таблицах - всемирное. Для получения местного времени необходимо прибавить поправку, которая равна 0 ч.

Смотрите также архив погоды в соседних городах и на ближайших метеорологических станциях:

Погода на Pegasus North (Антарктида) (12 км)
Погода на Linda (Антарктида) (78 км)
Погода на Minna Bluff (Антарктида) (78 км)
Погода на Marble Point (Антарктида) (84 км)
Погода на Ferrell (Антарктида) (97 км)
Погода на Cape Ross (Антарктида) (156 км)
Погода на Marilyn (Антарктида) (236 км)
Погода на Schwerdtfeger (Антарктида) (236 км)
Погода на Manuela (Антарктида) (333 км)
Погода на Baia Terra Nova (Антарктида) (357 км)

Пояснения к столбцам:

Ветер - указаны скорость ветра в м/с - средняя за 10 мин, порывы в срок и между сроками (в фигурных скобках) и направление, откуда дует ветер: С - северный, СВ - северо-восточный, В - восточный, ЮВ - юго-восточный, Ю - южный, ЮЗ - юго-западный, З - западный, СЗ - северо-западный.
Видимость - горизонтальная дальность видимости в метрах или километрах. При видимости от 1 до 10 км при отсутствии осадков обычно наблюдается дымка, при ухудшении видимости до 1 км и менее - туман. В сухую погоду видимость может ухудшаться дымом, пылью или мглою.
Явления - указаны атмосферные явления, наблюдавшиеся в срок или в последний час перед сроком; фигурными скобками обозначены явления, наблюдавшиеся между сроками (за 1-3 часа до срока); квадратными скобками обозначены град или гололедные отложения с указанием их диаметра в мм.
Облачность - указаны через наклонную черту общая и нижняя облачность в баллах и высота нижней границы облаков в метрах; квадратными скобками обозначены формы облаков: Ci - перистые, Cs - перисто-слоистые, Cc - перисто-кучевые, Ac - высококучевые, As - высокослоистые, Sc - слоисто-кучевые, Ns - слоисто-дождевые, Cu - кучевые, Cb - кучево-дождевые. Подробнее классификацию облаков см. в Атласе облаков (PDF).
T - Температура воздуха - температура, измеренная на высоте 2 м над землей.
Td - Температура точки росы - температура, при понижении до которой содержащийся в воздухе водяной пар достигнет насыщения.
f - Относительная влажность воздуха - влажноcть воздуха, измеренная на высоте 2 м над землей.
Te - Эффективная температура - температура, которую ощущает одетый по сезону человек в тени. Характеристика душности погоды. При расчете учитывается влияние влажности воздуха и скорости ветра на теплоощущения человека.
Tes - Эффективная температура на солнце - температура, которую ощущает человек, с поправкой на солнечный нагрев. Характеристика знойности погоды. Зависит от высоты солнца над горизонтом, облачности и скорости ветра. Ночью, в пасмурную погоду, а также при ветре 12 м/с и более поправка равна нулю.
P - Атмосферное давление - приведенное к уровню моря атмосферное давление.
Po - Атмосферное давление - измеренное на уровне метеостанции атмосферное давление.
Tmin - Минимальная температура - минимум температуры воздуха на высоте 2 м над землей.
Tmax - Максимальная температура - максимум температуры воздуха на высоте 2 м над землей.
R - Количество осадков - Количество выпавших осадков за период времени, мм. При наведении курсора мыши на число - период времени, за который выпало указанное количество осадков.
R24 - Количество осадков - Количество выпавших осадков за 24 часа, мм.
S - Снежный покров - Высота снежного покрова, см. При наведении курсора мыши на число - состояние снежного покрова и степень покрытия местности в баллах.